Time,TemperatureF,DewpointF,PressureIn,WindDirection,WindDirectionDegrees,WindSpeedMPH,WindSpeedGustMPH,Humidity,HourlyPrecipIn,Conditions,Clouds,dailyrainin,SolarRadiationWatts/m^2,SoftwareType,DateUTC
2013-09-21 00:03:00,56.0,47.0,-100.00,NNW,332,7.0,15.0,73,0.00,,,0.03,0.000000,,2013-09-21 05:03:00,
2013-09-21 00:44:00,53.0,48.0,-100.00,NW,324,2.0,13.0,83,0.00,,,0.03,0.000000,,2013-09-21 05:44:00,
2013-09-21 00:53:00,53.0,48.0,-100.00,NW,324,2.0,13.0,83,0.00,,,0.03,0.000000,,2013-09-21 05:53:00,
2013-09-21 01:02:00,53.0,48.0,-100.00,NW,324,2.0,13.0,83,0.00,,,0.03,0.000000,,2013-09-21 06:02:00,
2013-09-21 01:42:00,51.0,49.0,-100.00,NW,316,1.0,6.0,92,0.00,,,0.03,0.000000,,2013-09-21 06:42:00,
2013-09-21 01:53:00,51.0,49.0,-100.00,NW,316,1.0,6.0,92,0.00,,,0.03,0.000000,,2013-09-21 06:53:00,
2013-09-21 02:01:00,51.0,49.0,-100.00,NW,316,1.0,6.0,92,0.00,,,0.03,0.000000,,2013-09-21 07:01:00,
2013-09-21 02:42:00,49.0,48.0,-100.00,NNW,334,2.0,5.0,95,0.00,,,0.03,0.000000,,2013-09-21 07:42:00,
2013-09-21 02:52:00,49.0,48.0,-100.00,NNW,334,2.0,5.0,95,0.00,,,0.03,0.000000,,2013-09-21 07:52:00,
2013-09-21 03:03:00,49.0,48.0,-100.00,NNW,334,2.0,5.0,95,0.00,,,0.03,0.000000,,2013-09-21 08:03:00,
2013-09-21 03:42:00,48.0,47.0,-100.00,WNW,298,0.0,4.0,97,0.00,,,0.03,0.000000,,2013-09-21 08:42:00,
2013-09-21 03:52:00,48.0,47.0,-100.00,WNW,298,0.0,4.0,97,0.00,,,0.03,0.000000,,2013-09-21 08:52:00,
2013-09-21 04:02:00,48.0,47.0,-100.00,WNW,298,0.0,4.0,97,0.00,,,0.03,0.000000,,2013-09-21 09:02:00,
2013-09-21 04:43:00,49.0,48.0,-100.00,NW,326,2.0,5.0,97,0.00,,,0.03,0.000000,,2013-09-21 09:43:00,
2013-09-21 04:54:00,49.0,48.0,-100.00,NW,326,2.0,5.0,97,0.00,,,0.03,0.000000,,2013-09-21 09:54:00,
2013-09-21 05:03:00,49.0,48.0,-100.00,NW,326,2.0,5.0,97,0.00,,,0.03,0.000000,,2013-09-21 10:03:00,
2013-09-21 05:42:00,50.0,49.0,-100.00,NW,307,2.0,7.0,95,0.00,,,0.03,0.000000,,2013-09-21 10:42:00,
2013-09-21 05:52:00,50.0,49.0,-100.00,NW,307,2.0,7.0,95,0.00,,,0.03,0.000000,,2013-09-21 10:52:00,
2013-09-21 06:03:00,50.0,49.0,-100.00,NW,307,2.0,7.0,95,0.00,,,0.03,0.000000,,2013-09-21 11:03:00,
2013-09-21 06:42:00,49.0,48.0,-100.00,NW,322,2.0,6.0,96,0.00,,,0.03,0.000000,,2013-09-21 11:42:00,
2013-09-21 06:52:00,49.0,48.0,-100.00,NW,322,2.0,6.0,96,0.00,,,0.03,0.000000,,2013-09-21 11:52:00,
2013-09-21 07:02:00,49.0,48.0,-100.00,NW,322,2.0,6.0,96,0.00,,,0.03,0.000000,,2013-09-21 12:02:00,
2013-09-21 07:42:00,49.0,47.0,-100.00,WNW,299,2.0,7.0,94,0.00,,,0.03,1.000000,,2013-09-21 12:42:00,
2013-09-21 07:52:00,49.0,47.0,-100.00,WNW,299,2.0,7.0,94,0.00,,,0.03,1.000000,,2013-09-21 12:52:00,
2013-09-21 08:02:00,49.0,47.0,-100.00,WNW,299,2.0,7.0,94,0.00,,,0.03,1.000000,,2013-09-21 13:02:00,
2013-09-21 08:42:00,50.0,46.0,-100.00,WNW,302,3.0,7.0,87,0.00,,,0.03,30.000000,,2013-09-21 13:42:00,
2013-09-21 08:52:00,50.0,46.0,-100.00,WNW,302,3.0,7.0,87,0.00,,,0.03,30.000000,,2013-09-21 13:52:00,
2013-09-21 09:02:00,50.0,46.0,-100.00,WNW,302,3.0,7.0,87,0.00,,,0.03,30.000000,,2013-09-21 14:02:00,
2013-09-21 09:42:00,51.0,48.0,-100.00,NNW,327,3.0,8.0,88,0.00,,,0.03,49.000000,,2013-09-21 14:42:00,
2013-09-21 09:52:00,51.0,48.0,-100.00,NNW,327,3.0,8.0,88,0.00,,,0.03,49.000000,,2013-09-21 14:52:00,
2013-09-21 10:01:00,51.0,48.0,-100.00,NNW,327,3.0,8.0,88,0.00,,,0.03,49.000000,,2013-09-21 15:01:00,
2013-09-21 10:05:00,53.0,44.0,-100.00,NNW,334,6.0,13.0,71,0.00,,,0.03,101.000000,,2013-09-21 15:05:00,
2013-09-21 10:45:00,53.0,44.0,-100.00,NNW,334,6.0,13.0,71,0.00,,,0.03,101.000000,,2013-09-21 15:45:00,
2013-09-21 10:55:00,53.0,44.0,-100.00,NNW,334,6.0,13.0,71,0.00,,,0.03,101.000000,,2013-09-21 15:55:00,
2013-09-21 11:43:00,54.0,41.0,-100.00,NNW,334,7.0,16.0,61,0.00,,,0.03,250.000000,,2013-09-21 16:43:00,
2013-09-21 11:54:00,54.0,41.0,-100.00,NNW,334,7.0,16.0,61,0.00,,,0.03,250.000000,,2013-09-21 16:54:00,
2013-09-21 12:03:00,54.0,41.0,-100.00,NNW,334,7.0,16.0,61,0.00,,,0.03,250.000000,,2013-09-21 17:03:00,
2013-09-21 12:43:00,56.0,41.0,-100.00,NW,326,7.0,14.0,56,0.00,,,0.03,390.000000,,2013-09-21 17:43:00,
2013-09-21 12:52:00,56.0,41.0,-100.00,NW,326,7.0,14.0,56,0.00,,,0.03,390.000000,,2013-09-21 17:52:00,
2013-09-21 13:02:00,56.0,41.0,-100.00,NW,326,7.0,14.0,56,0.00,,,0.03,390.000000,,2013-09-21 18:02:00,
2013-09-21 13:42:00,59.0,40.0,-100.00,NW,307,7.0,14.0,50,0.00,,,0.03,788.000000,,2013-09-21 18:42:00,
2013-09-21 13:52:00,59.0,40.0,-100.00,NW,307,7.0,14.0,50,0.00,,,0.03,788.000000,,2013-09-21 18:52:00,
2013-09-21 14:02:00,59.0,40.0,-100.00,NW,307,7.0,14.0,50,0.00,,,0.03,788.000000,,2013-09-21 19:02:00,
2013-09-21 14:42:00,61.0,41.0,-100.00,NW,309,6.0,17.0,48,0.00,,,0.03,714.000000,,2013-09-21 19:42:00,
2013-09-21 14:52:00,61.0,41.0,-100.00,NW,309,6.0,17.0,48,0.00,,,0.03,714.000000,,2013-09-21 19:52:00,
2013-09-21 15:02:00,61.0,41.0,-100.00,NW,309,6.0,17.0,48,0.00,,,0.03,714.000000,,2013-09-21 20:02:00,
2013-09-21 15:43:00,62.0,42.0,-100.00,NW,312,6.0,14.0,47,0.00,,,0.00,657.000000,,2013-09-21 20:43:00,
2013-09-21 15:52:00,62.0,42.0,-100.00,NW,312,6.0,14.0,47,0.00,,,0.00,657.000000,,2013-09-21 20:52:00,
2013-09-21 16:02:00,62.0,42.0,-100.00,NW,312,6.0,14.0,47,0.00,,,0.00,657.000000,,2013-09-21 21:02:00,
2013-09-21 16:05:00,62.0,42.0,-100.00,NW,319,6.0,12.0,48,0.00,,,0.00,539.000000,,2013-09-21 21:05:00,
2013-09-21 16:45:00,62.0,42.0,-100.00,NW,319,6.0,12.0,48,0.00,,,0.00,539.000000,,2013-09-21 21:45:00,
2013-09-21 16:54:00,62.0,42.0,-100.00,NW,319,6.0,12.0,48,0.00,,,0.00,539.000000,,2013-09-21 21:54:00,
2013-09-21 17:43:00,62.0,42.0,-100.00,NW,314,6.0,12.0,48,0.00,,,0.00,412.000000,,2013-09-21 22:43:00,
2013-09-21 17:53:00,62.0,42.0,-100.00,NW,314,6.0,12.0,48,0.00,,,0.00,412.000000,,2013-09-21 22:53:00,
2013-09-21 18:03:00,62.0,42.0,-100.00,NW,314,6.0,12.0,48,0.00,,,0.00,412.000000,,2013-09-21 23:03:00,
2013-09-21 18:42:00,61.0,42.0,-100.00,NNW,336,5.0,11.0,50,0.00,,,0.00,241.000000,,2013-09-21 23:42:00,
2013-09-21 18:53:00,61.0,42.0,-100.00,NNW,336,5.0,11.0,50,0.00,,,0.00,241.000000,,2013-09-21 23:53:00,
2013-09-21 19:02:00,61.0,42.0,-100.00,NNW,336,5.0,11.0,50,0.00,,,0.00,241.000000,,2013-09-22 00:02:00,
2013-09-21 19:43:00,55.0,45.0,-100.00,North,355,0.0,10.0,68,0.00,,,0.00,39.000000,,2013-09-22 00:43:00,
2013-09-21 19:52:00,55.0,45.0,-100.00,North,355,0.0,10.0,68,0.00,,,0.00,39.000000,,2013-09-22 00:52:00,
2013-09-21 20:02:00,55.0,45.0,-100.00,North,355,0.0,10.0,68,0.00,,,0.00,39.000000,,2013-09-22 01:02:00,
2013-09-21 20:42:00,49.0,46.0,-100.00,NE,55,0.0,2.0,88,0.00,,,0.00,1.000000,,2013-09-22 01:42:00,
2013-09-21 20:52:00,49.0,46.0,-100.00,NE,55,0.0,2.0,88,0.00,,,0.00,1.000000,,2013-09-22 01:52:00,
2013-09-21 21:02:00,49.0,46.0,-100.00,NE,55,0.0,2.0,88,0.00,,,0.00,1.000000,,2013-09-22 02:02:00,
2013-09-21 21:42:00,46.0,45.0,-100.00,SW,217,0.0,1.0,97,0.00,,,0.00,0.000000,,2013-09-22 02:42:00,
2013-09-21 21:52:00,46.0,45.0,-100.00,SW,217,0.0,1.0,97,0.00,,,0.00,0.000000,,2013-09-22 02:52:00,
2013-09-21 22:02:00,46.0,45.0,-100.00,SW,217,0.0,1.0,97,0.00,,,0.00,0.000000,,2013-09-22 03:02:00,
2013-09-21 22:45:00,44.0,43.0,-100.00,SW,228,0.0,1.0,98,0.00,,,0.00,0.000000,,2013-09-22 03:45:00,
2013-09-21 22:54:00,44.0,43.0,-100.00,SW,228,0.0,1.0,98,0.00,,,0.00,0.000000,,2013-09-22 03:54:00,
2013-09-21 23:02:00,-999.0,-99.9,-100.00,SW,228,0.0,1.0,-999,-99.99,,,-99.99,0.000000,,2013-09-22 04:02:00,
2013-09-21 23:44:00,43.0,43.0,-100.00,SW,228,0.0,2.0,99,0.00,,,0.00,0.000000,,2013-09-22 04:44:00,
2013-09-21 23:54:00,43.0,43.0,-100.00,SW,228,0.0,2.0,99,0.00,,,0.00,0.000000,,2013-09-22 04:54:00,